This demonstration page uses our WeatherBlox Daily Observations layout. Learn more.

38.88101, -77.10428

Hourly Observations for August 27, 2017

Temp ( °F °C ) Dew Point ( °F °C ) Humidity (%) Winds ( mph kmh ) Pressure ( in mb ) Visibility ( mi km ) Precip ( " mm )
12:52 am 00:52 Cloudy 70 21.1 61 16.1 73 73 ENE 6 9 30.24 1024 10 16.0934 0 0
1:52 am 01:52 Cloudy 69 20.6 62 16.7 78 78 ENE 6 9 30.23 1024 10 16.0934 0 0
2:52 am 02:52 Mostly Cloudy 68 20 60 15.6 76 76 NNE 5 7 30.22 1024 10 16.0934 0 0
3:52 am 03:52 Mostly Cloudy 67 19.4 61 16.1 81 81 N 3 6 30.22 1023 10 16.0934 0 0
4:52 am 04:52 Mostly Cloudy 66 18.9 61 16.1 84 84 NE 6 9 30.22 1023 10 16.0934 0 0
5:52 am 05:52 Mostly Cloudy 66 18.9 60 15.6 81 81 Calm 30.22 1024 10 16.0934 0 0
6:52 am 06:52 Cloudy 66 18.9 61 16.1 84 84 NNE 5 7 30.24 1024 10 16.0934 0 0
7:52 am 07:52 Mostly Cloudy 67 19.4 61 16.1 81 81 NE 7 11 30.24 1024 10 16.0934 0 0
8:52 am 08:52 Mostly Cloudy 70 21.1 63 17.2 79 79 NE 7 11 30.25 1024 10 16.0934 0 0
9:52 am 09:52 Mostly Cloudy 73 22.8 60 15.6 64 64 E 9 15 30.26 1025 10 16.0934 0 0
10:52 am 10:52 Mostly Cloudy 76 24.4 58 14.4 54 54 E 9 15 30.26 1025 10 16.0934 0 0
11:52 am 11:52 Mostly Cloudy 76 24.4 57 13.9 52 52 NE 7 11 30.25 1024 10 16.0934 0 0
12:52 pm 12:52 Mostly Cloudy 78 25.6 57 13.9 48 48 VRB 6 9 30.23 1024 10 16.0934 0 0
1:52 pm 13:52 Mostly Cloudy 79 26.1 54 12.2 42 42 E 10 17 30.22 1023 10 16.0934 0 0
2:52 pm 14:52 Mostly Cloudy 78 25.6 55 12.8 45 45 E 15 24 30.2 1023 10 16.0934 0 0
3:52 pm 15:52 Cloudy 77 25 54 12.2 45 45 E 12 19 30.2 1023 10 16.0934 0 0
4:52 pm 16:52 Cloudy 78 25.6 55 12.8 45 45 E 7 11 30.19 1023 10 16.0934 0 0
5:52 pm 17:52 Mostly Cloudy 77 25 55 12.8 47 47 ENE 10 17 30.18 1022 10 16.0934 0 0
6:52 pm 18:52 Mostly Cloudy 75 23.9 55 12.8 50 50 E 10 17 30.18 1022 10 16.0934 0 0
7:52 pm 19:52 Partly Cloudy 73 22.8 55 12.8 53 53 E 9 15 30.18 1022 10 16.0934 0 0
8:52 pm 20:52 Mostly Clear 72 22.2 55 12.8 55 55 E 7 11 30.2 1023 10 16.0934 0 0
9:52 pm 21:52 Mostly Clear 71 21.7 57 13.9 61 61 ESE 10 17 30.22 1024 10 16.0934 0 0
10:52 pm 22:52 Partly Cloudy 70 21.1 58 14.4 66 66 ESE 9 15 30.23 1024 10 16.0934 0 0
11:52 pm 23:52 Partly Cloudy 69 20.6 59 15 70 70 ESE 8 13 30.22 1023 10 16.0934 0 0

Powered by AerisWeather